FW8685 Weather Reports


time (UTC)temp
F
wind
direction
speed
knots
gust
knots
rain 1hr
in
rain 24hr
in
rain mn
in
humidity
%
barometer
mb
20260504192021 85 213 4.3 14.8 0.00 0.00 0.00 39 1000.9
20260504191541 85 231 7.8 16.5 0.00 0.00 0.00 39 1001.0
20260504191021 85 178 8.7 16.5 0.00 0.00 0.00 43 1000.9
20260504190521 84 150 5.2 15.6 0.00 0.00 0.00 42 1001.0
20260504190037 84 158 4.3 15.6 0.00 0.00 0.00 42 1001.0
20260504185520 84 256 7.8 17.4 0.00 0.00 0.00 41 1001.1
20260504185021 84 216 8.7 17.4 0.00 0.00 0.00 41 1001.2
20260504184540 84 254 8.7 15.6 0.00 0.00 0.00 42 1001.1
20260504184021 84 246 6.1 14.8 0.00 0.00 0.00 42 1001.1
20260504183522 83 169 6.1 14.8 0.00 0.00 0.00 44 1001.1
20260504183037 84 202 7.8 13.9 0.00 0.00 0.00 41 1001.2
20260504182521 83 185 4.3 12.2 0.00 0.00 0.00 42 1001.3
20260504182021 83 235 5.2 12.2 0.00 0.00 0.00 43 1001.4
20260504181544 83 225 5.2 13.9 0.00 0.00 0.00 43 1001.4
20260504181021 83 190 5.2 13.9 0.00 0.00 0.00 42 1001.4
20260504180522 83 152 5.2 11.3 0.00 0.00 0.00 44 1001.6
20260504180037 82 188 7.0 16.5 0.00 0.00 0.00 43 1001.6
20260504175522 82 248 4.3 16.5 0.00 0.00 0.00 41 1001.6
20260504175021 82 198 7.8 13.9 0.00 0.00 0.00 42 1001.6
20260504174536 81 242 5.2 13.0 0.00 0.00 0.00 43 1001.8
20260504174022 81 245 6.1 13.9 0.00 0.00 0.00 45 1001.7
20260504173522 81 234 7.0 16.5 0.00 0.00 0.00 44 1001.8
20260504173032 81 201 7.0 16.5 0.00 0.00 0.00 44 1001.7
20260504172520 80 205 7.8 14.8 0.00 0.00 0.00 44 1001.7
20260504172021 80 202 7.8 15.6 0.00 0.00 0.00 46 1001.7
20260504171545 80 183 7.0 15.6 0.00 0.00 0.00 44 1001.7
20260504171023 80 225 6.1 15.6 0.00 0.00 0.00 44 1001.8
20260504170523 79 245 7.8 15.6 0.00 0.00 0.00 47 1001.8
20260504151021 72 218 10.4 21.7 0.00 0.00 0.00 52 1002.3
20260504150520 72 227 9.6 21.7 0.00 0.00 0.00 50 1002.3
20260504141020 68 244 7.8 19.1 0.00 0.00 0.00 55 1002.5
20260504140521 68 204 7.8 18.2 0.00 0.00 0.00 54 1002.5
20260504130525 64 221 7.8 20.0 0.00 0.00 0.00 59 1002.5
20260504110524 63 217 8.7 15.6 0.00 0.00 0.00 56 1002.4
20260504100520 64 223 10.4 20.9 0.00 0.00 0.00 53 1002.9
20260504081538 66 205 7.0 21.7 0.00 0.00 0.00 48 1003.8
20260504081022 66 211 11.3 21.7 0.00 0.00 0.00 48 1003.8
20260504080522 66 226 10.4 20.9 0.00 0.00 0.00 48 1003.8
20260504050522 70 212 13.0 27.8 0.00 0.00 0.00 42 1005.0
20260504045521 70 194 13.0 23.5 0.00 0.00 0.00 42 1005.1
20260504045021 70 182 11.3 23.5 0.00 0.00 0.00 42 1005.2
20260504044543 70 188 13.9 25.2 0.00 0.00 0.00 41 1005.1
20260504044021 70 201 13.0 25.2 0.00 0.00 0.00 41 1005.1
20260504043521 70 205 13.9 23.5 0.00 0.00 0.00 41 1005.1
20260504043036 70 206 11.3 23.5 0.00 0.00 0.00 41 1005.1
20260504042521 71 196 12.2 21.7 0.00 0.00 0.00 40 1005.3
20260504042021 71 167 11.3 20.0 0.00 0.00 0.00 40 1005.1
20260504041537 71 196 10.4 20.9 0.00 0.00 0.00 40 1005.3
20260504041020 71 201 12.2 21.7 0.00 0.00 0.00 40 1005.3
20260504040521 70 136 13.9 21.7 0.00 0.00 0.00 40 1005.3
20260504040054 70 209 13.0 20.9 0.00 0.00 0.00 41 1005.3
20260504035522 70 224 12.2 22.6 0.00 0.00 0.00 41 1005.3
20260504035021 70 206 12.2 22.6 0.00 0.00 0.00 41 1005.4
20260504034553 69 202 11.3 19.1 0.00 0.00 0.00 42 1005.4
20260504034021 69 188 10.4 20.0 0.00 0.00 0.00 43 1005.3
20260504033521 69 192 9.6 20.0 0.00 0.00 0.00 43 1005.4
20260504033038 69 195 10.4 19.1 0.00 0.00 0.00 44 1005.4
20260504032521 69 188 8.7 20.9 0.00 0.00 0.00 44 1005.4
20260504032023 69 195 9.6 20.9 0.00 0.00 0.00 44 1005.5
20260504031537 69 174 9.6 19.1 0.00 0.00 0.00 44 1005.5
20260504031021 69 187 9.6 17.4 0.00 0.00 0.00 43 1005.6
20260504030521 69 175 9.6 16.5 0.00 0.00 0.00 43 1005.5
20260504030042 69 160 8.7 15.6 0.00 0.00 0.00 43 1005.6
20260504025521 70 182 8.7 15.6 0.00 0.00 0.00 42 1005.5
20260504025023 70 178 10.4 15.6 0.00 0.00 0.00 42 1005.7
20260504024538 70 152 9.6 15.6 0.00 0.00 0.00 41 1005.7
20260504024023 70 169 8.7 14.8 0.00 0.00 0.00 41 1005.7
20260504023521 71 192 7.8 14.8 0.00 0.00 0.00 41 1005.6
20260504023040 71 172 7.8 15.6 0.00 0.00 0.00 40 1005.6
20260504022524 71 167 7.8 15.6 0.00 0.00 0.00 40 1005.6
20260504022022 71 197 8.7 14.8 0.00 0.00 0.00 40 1005.6
20260504021538 71 176 7.8 13.0 0.00 0.00 0.00 40 1005.6
20260504021021 71 159 7.8 13.9 0.00 0.00 0.00 39 1005.5
20260504020521 72 194 7.0 14.8 0.00 0.00 0.00 39 1005.5
20260504020037 72 173 7.8 14.8 0.00 0.00 0.00 39 1005.5
20260504015522 72 182 8.7 15.6 0.00 0.00 0.00 38 1005.5
20260504015021 72 188 7.8 15.6 0.00 0.00 0.00 37 1005.5
20260504014536 73 190 7.8 13.0 0.00 0.00 0.00 37 1005.4
20260504014020 73 188 7.8 13.0 0.00 0.00 0.00 36 1005.4
20260504013522 73 165 7.0 13.0 0.00 0.00 0.00 35 1005.5
20260504013047 74 194 7.0 12.2 0.00 0.00 0.00 34 1005.4
20260504012525 74 172 6.1 12.2 0.00 0.00 0.00 33 1005.4
20260504012022 75 182 5.2 8.7 0.00 0.00 0.00 32 1005.3
20260504011541 76 175 5.2 9.6 0.00 0.00 0.00 30 1005.3
20260504011021 77 207 5.2 9.6 0.00 0.00 0.00 29 1005.4
20260504010521 77 217 6.1 9.6 0.00 0.00 0.00 29 1005.3
20260504010038 78 213 5.2 11.3 0.00 0.00 0.00 29 1005.4
20260504005524 78 215 6.1 11.3 0.00 0.00 0.00 28 1005.4
20260504005025 78 206 6.1 13.0 0.00 0.00 0.00 28 1005.5
20260504004537 79 196 6.1 13.0 0.00 0.00 0.00 27 1005.5
20260504004026 79 215 6.1 13.0 0.00 0.00 0.00 27 1005.5
20260504003525 79 214 7.0 13.0 0.00 0.00 0.00 27 1005.6
20260504003037 80 246 6.1 13.9 0.00 0.00 0.00 26 1005.7
20260504002525 80 219 7.0 13.9 0.00 0.00 0.00 26 1005.7
20260504002024 80 211 7.0 15.6 0.00 0.00 0.00 26 1005.7
20260504001557 81 205 6.1 16.5 0.00 0.00 0.00 25 1005.8
20260504001025 81 207 7.0 16.5 0.00 0.00 0.00 26 1005.8
20260504000525 81 208 6.1 16.5 0.00 0.00 0.00 25 1005.9
20260504000040 82 234 8.7 16.5 0.00 0.00 0.00 25 1005.8
20260503235524 82 234 7.0 14.8 0.00 0.00 0.00 24 1005.9
20260503235025 82 239 7.0 14.8 0.00 0.00 0.00 24 1005.9
20260503234540 83 235 7.0 19.1 0.00 0.00 0.00 22 1006.0
20260503234022 83 259 10.4 19.1 0.00 0.00 0.00 22 1006.1
20260503233526 84 213 7.8 17.4 0.00 0.00 0.00 22 1006.1
20260503233040 85 236 9.6 17.4 0.00 0.00 0.00 22 1006.1
20260503232524 85 238 7.0 14.8 0.00 0.00 0.00 23 1006.1
20260503232021 85 242 8.7 17.4 0.00 0.00 0.00 22 1006.1
20260503231537 85 225 7.8 17.4 0.00 0.00 0.00 23 1006.2
20260503231021 85 239 8.7 23.5 0.00 0.00 0.00 21 1006.1
20260503230527 85 215 12.2 23.5 0.00 0.00 0.00 21 1006.1
20260503230037 86 231 10.4 20.0 0.00 0.00 0.00 20 1006.2
20260503225521 86 250 10.4 17.4 0.00 0.00 0.00 21 1006.2
20260503225024 86 218 6.1 16.5 0.00 0.00 0.00 22 1006.2
20260503224536 85 217 10.4 16.5 0.00 0.00 0.00 21 1006.3
20260503224022 85 226 10.4 17.4 0.00 0.00 0.00 20 1006.3
20260503223524 86 235 10.4 18.2 0.00 0.00 0.00 19 1006.4
20260503223041 86 246 10.4 18.2 0.00 0.00 0.00 21 1006.4
20260503222524 86 249 10.4 20.9 0.00 0.00 0.00 21 1006.4
20260503222021 86 198 10.4 20.9 0.00 0.00 0.00 21 1006.3
20260503221543 86 210 9.6 18.2 0.00 0.00 0.00 20 1006.5
20260503221026 86 226 8.7 20.0 0.00 0.00 0.00 20 1006.5
20260503220522 87 229 10.4 20.0 0.00 0.00 0.00 20 1006.6
20260503220040 87 226 9.6 19.1 0.00 0.00 0.00 21 1006.7
20260503215522 87 250 7.8 19.1 0.00 0.00 0.00 20 1006.7
20260503215025 86 235 8.7 21.7 0.00 0.00 0.00 21 1006.8
20260503214540 86 279 10.4 21.7 0.00 0.00 0.00 20 1006.9
20260503214022 87 238 12.2 21.7 0.00 0.00 0.00 21 1007.0
20260503213523 87 254 13.0 19.1 0.00 0.00 0.00 20 1007.1
20260503213043 86 267 10.4 22.6 0.00 0.00 0.00 20 1007.3
20260503212521 87 242 13.0 22.6 0.00 0.00 0.00 20 1007.3
20260503212021 87 248 8.7 22.6 0.00 0.00 0.00 21 1007.3
20260503211537 87 242 12.2 22.6 0.00 0.00 0.00 20 1007.4
20260503211022 86 227 10.4 19.1 0.00 0.00 0.00 20 1007.5
20260503210525 86 215 8.7 19.1 0.00 0.00 0.00 21 1007.6
20260503210036 86 260 10.4 19.1 0.00 0.00 0.00 21 1007.6
20260503205522 86 232 7.8 16.5 0.00 0.00 0.00 21 1007.8
20260503205022 86 229 7.8 20.0 0.00 0.00 0.00 21 1007.9
20260503204544 86 220 10.4 20.0 0.00 0.00 0.00 21 1007.8
20260503204022 86 271 11.3 20.0 0.00 0.00 0.00 19 1008.1
20260503203522 87 224 11.3 20.0 0.00 0.00 0.00 19 1008.2
20260503203042 86 287 10.4 21.7 0.00 0.00 0.00 20 1008.2
20260503202522 86 278 11.3 21.7 0.00 0.00 0.00 21 1008.3
20260503202022 86 240 10.4 21.7 0.00 0.00 0.00 21 1008.4
20260503201539 86 213 9.6 17.4 0.00 0.00 0.00 21 1008.5
20260503201024 85 244 9.6 21.7 0.00 0.00 0.00 20 1008.5
20260503200521 86 188 13.0 21.7 0.00 0.00 0.00 20 1008.6
20260503200038 86 228 7.8 21.7 0.00 0.00 0.00 20 1008.6
20260503195521 86 241 10.4 21.7 0.00 0.00 0.00 20 1008.7
20260503195021 86 258 8.7 17.4 0.00 0.00 0.00 20 1008.7
20260503194539 86 231 9.6 17.4 0.00 0.00 0.00 20 1008.9
20260503194023 85 198 8.7 21.7 0.00 0.00 0.00 20 1009.0
20260503193522 85 188 12.2 21.7 0.00 0.00 0.00 19 1008.9
20260503193039 86 225 9.6 20.9 0.00 0.00 0.00 21 1009.0
20260503192522 85 288 7.0 22.6 0.00 0.00 0.00 23 1009.1